Time,TemperatureF,DewpointF,PressureIn,WindDirection,WindDirectionDegrees,WindSpeedMPH,WindSpeedGustMPH,Humidity,HourlyPrecipIn,Conditions,Clouds,dailyrainin,SoftwareType,DateUTC
2013-01-31 00:00:00,42.3,39.2,29.70,West,277,3.0,15.0,89,0.00,,,1.89,meteohub,2013-01-31 05:00:00,
2013-01-31 00:02:00,42.3,38.7,29.71,WNW,288,5.0,7.0,87,0.00,,,1.89,meteohub,2013-01-31 05:02:00,
2013-01-31 00:07:00,42.1,37.2,29.71,WNW,287,5.0,13.0,83,0.00,,,0.00,meteohub,2013-01-31 05:07:00,
2013-01-31 00:15:00,41.9,36.9,29.72,NW,314,4.0,13.0,82,0.00,,,0.00,meteohub,2013-01-31 05:15:00,
2013-01-31 00:16:00,41.7,36.7,29.72,WSW,248,2.0,13.0,82,0.00,,,0.00,meteohub,2013-01-31 05:16:00,
2013-01-31 00:21:00,41.5,35.8,29.71,WSW,239,3.0,14.0,80,0.00,,,0.00,meteohub,2013-01-31 05:21:00,
2013-01-31 00:26:00,41.5,35.6,29.72,WNW,302,4.0,14.0,79,0.00,,,0.00,meteohub,2013-01-31 05:26:00,
2013-01-31 00:31:00,41.4,35.4,29.72,WSW,257,1.0,14.0,79,0.00,,,0.00,meteohub,2013-01-31 05:31:00,
2013-01-31 00:36:00,41.4,35.1,29.73,SW,218,1.0,14.0,78,0.00,,,0.00,meteohub,2013-01-31 05:36:00,
2013-01-31 00:41:00,41.2,34.9,29.73,WSW,242,3.0,14.0,78,0.00,,,0.00,meteohub,2013-01-31 05:41:00,
2013-01-31 00:46:00,41.2,34.9,29.73,South,191,4.0,14.0,78,0.00,,,0.00,meteohub,2013-01-31 05:46:00,
2013-01-31 00:51:00,40.8,34.5,29.73,South,180,8.0,9.0,78,0.00,,,0.00,meteohub,2013-01-31 05:51:00,
2013-01-31 00:56:00,40.8,33.8,29.74,West,263,1.0,12.0,76,0.00,,,0.00,meteohub,2013-01-31 05:56:00,
2013-01-31 01:01:00,40.8,34.2,29.74,West,277,2.0,12.0,77,0.00,,,0.00,meteohub,2013-01-31 06:01:00,
2013-01-31 01:06:00,40.6,34.0,29.75,WNW,302,8.0,12.0,77,0.00,,,0.00,meteohub,2013-01-31 06:06:00,
2013-01-31 01:11:00,40.6,34.0,29.75,SSW,193,4.0,10.0,77,0.00,,,0.00,meteohub,2013-01-31 06:11:00,
2013-01-31 01:16:00,40.6,34.0,29.76,WSW,245,4.0,11.0,77,0.00,,,0.00,meteohub,2013-01-31 06:16:00,
2013-01-31 01:21:00,40.6,34.0,29.76,West,266,3.0,11.0,77,0.00,,,0.00,meteohub,2013-01-31 06:21:00,
2013-01-31 01:26:00,40.5,32.9,29.75,SSW,210,3.0,11.0,74,0.00,,,0.00,meteohub,2013-01-31 06:26:00,
2013-01-31 01:31:00,40.6,32.0,29.75,SW,235,3.0,11.0,71,0.00,,,0.00,meteohub,2013-01-31 06:31:00,
2013-01-31 01:36:00,40.5,31.8,29.76,NNW,331,1.0,11.0,71,0.00,,,0.00,meteohub,2013-01-31 06:36:00,
2013-01-31 01:41:00,40.3,31.6,29.76,WNW,288,4.0,11.0,71,0.00,,,0.00,meteohub,2013-01-31 06:41:00,
2013-01-31 01:46:00,40.1,31.1,29.76,SSW,193,5.0,11.0,70,0.00,,,0.00,meteohub,2013-01-31 06:46:00,
2013-01-31 01:51:00,39.9,31.3,29.77,SSE,165,2.0,11.0,71,0.00,,,0.00,meteohub,2013-01-31 06:51:00,
2013-01-31 01:56:00,39.7,30.7,29.77,SSW,210,5.0,11.0,70,0.00,,,0.00,meteohub,2013-01-31 06:56:00,
2013-01-31 02:01:00,39.6,30.9,29.78,South,177,7.0,11.0,71,0.00,,,0.00,meteohub,2013-01-31 07:01:00,
2013-01-31 02:06:00,39.6,30.2,29.77,NNE,22,6.0,17.0,69,0.00,,,0.00,meteohub,2013-01-31 07:06:00,
2013-01-31 02:11:00,39.4,30.0,29.78,NW,315,5.0,17.0,69,0.00,,,0.00,meteohub,2013-01-31 07:11:00,
2013-01-31 02:17:00,39.0,29.3,29.78,SSE,165,5.0,17.0,68,0.00,,,0.00,meteohub,2013-01-31 07:17:00,
2013-01-31 02:22:00,38.8,29.5,29.79,NNW,329,4.0,13.0,69,0.00,,,0.00,meteohub,2013-01-31 07:22:00,
2013-01-31 02:27:00,38.5,28.0,29.80,South,184,11.0,12.0,66,0.00,,,0.00,meteohub,2013-01-31 07:27:00,
2013-01-31 02:32:00,38.3,28.2,29.80,NW,322,2.0,15.0,67,0.00,,,0.00,meteohub,2013-01-31 07:32:00,
2013-01-31 02:37:00,38.1,28.2,29.80,West,264,4.0,15.0,67,0.00,,,0.00,meteohub,2013-01-31 07:37:00,
2013-01-31 02:42:00,37.9,28.4,29.81,SSE,162,2.0,15.0,68,0.00,,,0.00,meteohub,2013-01-31 07:42:00,
2013-01-31 02:47:00,37.8,27.9,29.81,West,274,3.0,15.0,67,0.00,,,0.00,meteohub,2013-01-31 07:47:00,
2013-01-31 02:52:00,37.6,27.3,29.81,West,276,5.0,15.0,66,0.00,,,0.00,meteohub,2013-01-31 07:52:00,
2013-01-31 02:57:00,37.2,26.6,29.81,WSW,245,4.0,12.0,65,0.00,,,0.00,meteohub,2013-01-31 07:57:00,
2013-01-31 03:02:00,37.0,27.5,29.82,NNW,343,6.0,12.0,68,0.00,,,0.00,meteohub,2013-01-31 08:02:00,
2013-01-31 03:07:00,36.9,26.6,29.83,SW,229,5.0,12.0,66,0.00,,,0.00,meteohub,2013-01-31 08:07:00,
2013-01-31 03:12:00,36.9,26.2,29.83,WNW,297,5.0,17.0,65,0.00,,,0.00,meteohub,2013-01-31 08:12:00,
2013-01-31 03:17:00,36.7,26.8,29.84,South,186,6.0,17.0,67,0.00,,,0.00,meteohub,2013-01-31 08:17:00,
2013-01-31 03:22:00,36.7,25.7,29.84,WNW,287,7.0,17.0,64,0.00,,,0.00,meteohub,2013-01-31 08:22:00,
2013-01-31 03:27:00,36.5,25.9,29.84,SW,224,4.0,15.0,65,0.00,,,0.00,meteohub,2013-01-31 08:27:00,
2013-01-31 03:32:00,36.3,25.3,29.85,SE,136,5.0,15.0,64,0.00,,,0.00,meteohub,2013-01-31 08:32:00,
2013-01-31 03:37:00,36.1,25.2,29.85,SSE,162,5.0,15.0,64,0.00,,,0.00,meteohub,2013-01-31 08:37:00,
2013-01-31 03:42:00,36.1,24.8,29.86,NW,319,1.0,12.0,63,0.00,,,0.00,meteohub,2013-01-31 08:42:00,
2013-01-31 03:47:00,36.0,24.6,29.86,SSE,158,2.0,12.0,63,0.00,,,0.00,meteohub,2013-01-31 08:47:00,
2013-01-31 03:52:00,36.0,25.3,29.86,SW,215,4.0,12.0,65,0.00,,,0.00,meteohub,2013-01-31 08:52:00,
2013-01-31 03:57:00,36.0,25.0,29.86,SW,233,5.0,12.0,64,0.00,,,0.00,meteohub,2013-01-31 08:57:00,
2013-01-31 04:02:00,36.0,25.0,29.86,WNW,293,2.0,10.0,64,0.00,,,0.00,meteohub,2013-01-31 09:02:00,
2013-01-31 04:07:00,36.0,25.7,29.86,WSW,250,2.0,10.0,66,0.00,,,0.00,meteohub,2013-01-31 09:07:00,
2013-01-31 04:12:00,35.8,25.2,29.86,West,262,4.0,10.0,65,0.00,,,0.00,meteohub,2013-01-31 09:12:00,
2013-01-31 04:17:00,35.8,25.2,29.86,WNW,297,3.0,12.0,65,0.00,,,0.00,meteohub,2013-01-31 09:17:00,
2013-01-31 04:22:00,35.8,24.8,29.86,NNE,14,2.0,12.0,64,0.00,,,0.00,meteohub,2013-01-31 09:22:00,
2013-01-31 04:27:00,35.8,25.2,29.86,WSW,243,3.0,14.0,65,0.00,,,0.00,meteohub,2013-01-31 09:27:00,
2013-01-31 04:32:00,35.8,25.5,29.86,WSW,238,5.0,14.0,66,0.00,,,0.00,meteohub,2013-01-31 09:32:00,
2013-01-31 04:37:00,35.8,25.2,29.86,NNW,335,2.0,11.0,65,0.00,,,0.00,meteohub,2013-01-31 09:37:00,
2013-01-31 04:42:00,35.8,25.5,29.86,WNW,285,2.0,10.0,66,0.00,,,0.00,meteohub,2013-01-31 09:42:00,
2013-01-31 04:47:00,35.8,25.5,29.87,North,356,6.0,10.0,66,0.00,,,0.00,meteohub,2013-01-31 09:47:00,
2013-01-31 04:52:00,35.8,25.5,29.87,SW,219,2.0,10.0,66,0.00,,,0.00,meteohub,2013-01-31 09:52:00,
2013-01-31 04:57:00,35.8,25.5,29.87,SW,218,2.0,11.0,66,0.00,,,0.00,meteohub,2013-01-31 09:57:00,
2013-01-31 05:02:00,35.8,25.5,29.88,SW,236,3.0,11.0,66,0.00,,,0.00,meteohub,2013-01-31 10:02:00,
2013-01-31 05:07:00,35.6,25.7,29.88,SSW,200,6.0,8.0,67,0.00,,,0.00,meteohub,2013-01-31 10:07:00,
2013-01-31 05:12:00,35.8,25.5,29.88,SW,235,3.0,7.0,66,0.00,,,0.00,meteohub,2013-01-31 10:12:00,
2013-01-31 05:17:00,35.8,26.2,29.88,SE,145,3.0,8.0,68,0.00,,,0.00,meteohub,2013-01-31 10:17:00,
2013-01-31 05:22:00,35.8,26.2,29.89,WNW,294,2.0,8.0,68,0.00,,,0.00,meteohub,2013-01-31 10:22:00,
2013-01-31 05:28:00,35.6,26.8,29.89,WSW,257,1.0,8.0,70,0.00,,,0.00,meteohub,2013-01-31 10:28:00,
2013-01-31 05:32:00,35.6,26.4,29.89,WSW,242,1.0,7.0,69,0.00,,,0.00,meteohub,2013-01-31 10:32:00,
2013-01-31 05:37:00,35.6,26.8,29.90,West,259,0.0,8.0,70,0.00,,,0.00,meteohub,2013-01-31 10:37:00,
2013-01-31 05:43:00,35.4,26.6,29.90,WSW,242,3.0,8.0,70,0.00,,,0.00,meteohub,2013-01-31 10:43:00,
2013-01-31 05:48:00,35.4,26.6,29.91,SW,228,3.0,8.0,70,0.00,,,0.00,meteohub,2013-01-31 10:48:00,
2013-01-31 05:53:00,35.4,26.6,29.91,SSE,168,6.0,6.0,70,0.00,,,0.00,meteohub,2013-01-31 10:53:00,
2013-01-31 05:58:00,35.4,27.0,29.91,South,189,4.0,6.0,71,0.00,,,0.00,meteohub,2013-01-31 10:58:00,
2013-01-31 06:03:00,35.4,27.0,29.91,West,281,2.0,6.0,71,0.00,,,0.00,meteohub,2013-01-31 11:03:00,
2013-01-31 06:08:00,35.2,26.8,29.92,WSW,242,3.0,7.0,71,0.00,,,0.00,meteohub,2013-01-31 11:08:00,
2013-01-31 06:13:00,35.2,26.4,29.92,SW,233,1.0,7.0,70,0.00,,,0.00,meteohub,2013-01-31 11:13:00,
2013-01-31 06:18:00,35.2,26.4,29.93,SSW,212,1.0,11.0,70,0.00,,,0.00,meteohub,2013-01-31 11:18:00,
2013-01-31 06:23:00,35.1,26.2,29.93,SSW,193,4.0,11.0,70,0.00,,,0.00,meteohub,2013-01-31 11:23:00,
2013-01-31 06:28:00,35.1,26.2,29.93,South,181,4.0,11.0,70,0.00,,,0.00,meteohub,2013-01-31 11:28:00,
2013-01-31 06:33:00,35.1,26.2,29.94,SSE,162,6.0,7.0,70,0.00,,,0.00,meteohub,2013-01-31 11:33:00,
2013-01-31 06:38:00,34.9,26.1,29.94,SSE,166,3.0,8.0,70,0.00,,,0.00,meteohub,2013-01-31 11:38:00,
2013-01-31 06:43:00,34.7,26.2,29.94,WSW,249,1.0,8.0,71,0.00,,,0.00,meteohub,2013-01-31 11:43:00,
2013-01-31 06:48:00,34.5,25.7,29.94,SW,235,3.0,8.0,70,0.00,,,0.00,meteohub,2013-01-31 11:48:00,
2013-01-31 06:53:00,34.5,26.1,29.95,SSE,165,5.0,11.0,71,0.00,,,0.00,meteohub,2013-01-31 11:53:00,
2013-01-31 06:58:00,34.5,25.3,29.94,South,187,4.0,11.0,69,0.00,,,0.00,meteohub,2013-01-31 11:58:00,
2013-01-31 07:03:00,34.5,25.7,29.95,SSW,198,5.0,7.0,70,0.00,,,0.00,meteohub,2013-01-31 12:03:00,
2013-01-31 07:08:00,34.3,25.5,29.95,South,184,4.0,8.0,70,0.00,,,0.00,meteohub,2013-01-31 12:08:00,
2013-01-31 07:13:00,34.3,25.2,29.95,SSW,208,2.0,8.0,69,0.00,,,0.00,meteohub,2013-01-31 12:13:00,
2013-01-31 07:18:00,34.2,25.0,29.95,West,271,3.0,6.0,69,0.00,,,0.00,meteohub,2013-01-31 12:18:00,
2013-01-31 07:23:00,34.2,25.0,29.95,SSW,202,2.0,11.0,69,0.00,,,0.00,meteohub,2013-01-31 12:23:00,
2013-01-31 07:28:00,34.0,24.6,29.95,NNE,12,1.0,11.0,68,0.00,,,0.00,meteohub,2013-01-31 12:28:00,
2013-01-31 07:33:00,34.0,24.6,29.96,SW,218,2.0,11.0,68,0.00,,,0.00,meteohub,2013-01-31 12:33:00,
2013-01-31 07:38:00,33.8,24.4,29.96,SW,224,2.0,8.0,68,0.00,,,0.00,meteohub,2013-01-31 12:38:00,
2013-01-31 07:43:00,33.6,24.3,29.96,West,266,2.0,9.0,68,0.00,,,0.00,meteohub,2013-01-31 12:43:00,
2013-01-31 07:48:00,33.6,24.3,29.96,SSW,193,3.0,9.0,68,0.00,,,0.00,meteohub,2013-01-31 12:48:00,
2013-01-31 07:53:00,33.6,24.6,29.96,SSW,212,2.0,9.0,69,0.00,,,0.00,meteohub,2013-01-31 12:53:00,
2013-01-31 07:58:00,33.4,24.4,29.96,SSE,165,1.0,6.0,69,0.00,,,0.00,meteohub,2013-01-31 12:58:00,
2013-01-31 08:03:00,33.4,24.4,29.96,SSE,167,3.0,5.0,69,0.00,,,0.00,meteohub,2013-01-31 13:03:00,
2013-01-31 08:08:00,33.4,24.8,29.97,SSW,207,3.0,6.0,70,0.00,,,0.00,meteohub,2013-01-31 13:08:00,
2013-01-31 08:13:00,33.4,24.8,29.97,NW,314,2.0,6.0,70,0.00,,,0.00,meteohub,2013-01-31 13:13:00,
2013-01-31 08:18:00,33.4,25.0,29.98,NNW,328,2.0,6.0,71,0.00,,,0.00,meteohub,2013-01-31 13:18:00,
2013-01-31 08:23:00,33.4,24.8,29.98,SW,215,5.0,6.0,70,0.00,,,0.00,meteohub,2013-01-31 13:23:00,
2013-01-31 08:28:00,33.6,25.2,29.98,South,179,2.0,6.0,71,0.00,,,0.00,meteohub,2013-01-31 13:28:00,
2013-01-31 08:33:00,33.6,24.8,29.98,SSW,207,5.0,7.0,70,0.00,,,0.00,meteohub,2013-01-31 13:33:00,
2013-01-31 08:38:00,33.8,25.3,29.98,SW,215,6.0,7.0,71,0.00,,,0.00,meteohub,2013-01-31 13:38:00,
2013-01-31 08:43:00,34.0,25.5,29.98,WSW,245,2.0,7.0,71,0.00,,,0.00,meteohub,2013-01-31 13:43:00,
2013-01-31 08:48:00,34.2,25.7,29.99,SSE,155,2.0,7.0,71,0.00,,,0.00,meteohub,2013-01-31 13:48:00,
2013-01-31 08:53:00,34.2,25.7,29.99,SSE,149,3.0,7.0,71,0.00,,,0.00,meteohub,2013-01-31 13:53:00,
2013-01-31 08:58:00,34.3,25.5,29.99,SSW,197,6.0,8.0,70,0.00,,,0.00,meteohub,2013-01-31 13:58:00,
2013-01-31 09:03:00,34.3,25.5,29.99,WSW,254,2.0,10.0,70,0.00,,,0.00,meteohub,2013-01-31 14:03:00,
2013-01-31 09:08:00,34.5,25.7,29.99,WSW,258,2.0,10.0,70,0.00,,,0.00,meteohub,2013-01-31 14:08:00,
2013-01-31 09:13:00,34.7,25.5,29.99,WNW,290,1.0,10.0,69,0.00,,,0.00,meteohub,2013-01-31 14:13:00,
2013-01-31 09:18:00,34.9,25.3,29.99,WSW,242,2.0,7.0,68,0.00,,,0.00,meteohub,2013-01-31 14:18:00,
2013-01-31 09:23:00,35.1,25.9,29.99,South,181,6.0,12.0,69,0.00,,,0.00,meteohub,2013-01-31 14:23:00,
2013-01-31 09:29:00,35.2,26.1,29.99,NW,312,4.0,12.0,69,0.00,,,0.00,meteohub,2013-01-31 14:29:00,
2013-01-31 09:34:00,35.4,26.2,29.99,West,270,2.0,12.0,69,0.00,,,0.00,meteohub,2013-01-31 14:34:00,
2013-01-31 09:39:00,35.6,26.1,30.00,NW,312,2.0,9.0,68,0.00,,,0.00,meteohub,2013-01-31 14:39:00,
2013-01-31 09:44:00,36.0,26.4,30.00,NW,314,1.0,9.0,68,0.00,,,0.00,meteohub,2013-01-31 14:44:00,
2013-01-31 09:49:00,36.0,26.8,30.00,WNW,297,3.0,7.0,69,0.00,,,0.00,meteohub,2013-01-31 14:49:00,
2013-01-31 09:54:00,36.1,26.2,30.01,SSW,203,5.0,8.0,67,0.00,,,0.00,meteohub,2013-01-31 14:54:00,
2013-01-31 09:59:00,36.1,26.2,30.00,SSE,161,6.0,11.0,67,0.00,,,0.00,meteohub,2013-01-31 14:59:00,
2013-01-31 10:04:00,36.1,26.2,30.00,SW,222,6.0,11.0,67,0.00,,,0.00,meteohub,2013-01-31 15:04:00,
2013-01-31 10:09:00,36.1,26.2,30.01,NNW,329,1.0,11.0,67,0.00,,,0.00,meteohub,2013-01-31 15:09:00,
2013-01-31 10:14:00,36.3,26.1,30.01,West,271,2.0,11.0,66,0.00,,,0.00,meteohub,2013-01-31 15:14:00,
2013-01-31 10:19:00,36.7,26.1,30.01,NNW,330,3.0,11.0,65,0.00,,,0.00,meteohub,2013-01-31 15:19:00,
2013-01-31 10:24:00,36.7,25.7,30.01,WNW,288,2.0,8.0,64,0.00,,,0.00,meteohub,2013-01-31 15:24:00,
2013-01-31 10:29:00,36.9,26.6,30.01,South,172,1.0,9.0,66,0.00,,,0.00,meteohub,2013-01-31 15:29:00,
2013-01-31 10:34:00,37.4,27.1,30.02,NW,310,2.0,9.0,66,0.00,,,0.00,meteohub,2013-01-31 15:34:00,
2013-01-31 10:39:00,37.6,26.6,30.02,SSE,152,2.0,8.0,64,0.00,,,0.00,meteohub,2013-01-31 15:39:00,
2013-01-31 10:44:00,37.6,25.7,30.02,West,281,4.0,9.0,62,0.00,,,0.00,meteohub,2013-01-31 15:44:00,
2013-01-31 10:49:00,37.4,26.4,30.03,WNW,297,1.0,9.0,64,0.00,,,0.00,meteohub,2013-01-31 15:49:00,
2013-01-31 10:54:00,37.8,27.5,30.02,WNW,300,1.0,9.0,66,0.00,,,0.00,meteohub,2013-01-31 15:54:00,
2013-01-31 10:59:00,38.1,26.2,30.02,SSW,206,2.0,9.0,62,0.00,,,0.00,meteohub,2013-01-31 15:59:00,
2013-01-31 11:04:00,38.3,26.8,30.02,SSW,197,1.0,8.0,63,0.00,,,0.00,meteohub,2013-01-31 16:04:00,
2013-01-31 11:09:00,38.5,25.9,30.03,SW,235,3.0,8.0,60,0.00,,,0.00,meteohub,2013-01-31 16:09:00,
2013-01-31 11:14:00,38.5,25.3,30.03,WNW,297,2.0,9.0,59,0.00,,,0.00,meteohub,2013-01-31 16:14:00,
2013-01-31 11:19:00,38.7,26.1,30.03,South,169,2.0,9.0,60,0.00,,,0.00,meteohub,2013-01-31 16:19:00,
2013-01-31 11:24:00,38.8,26.6,30.03,WSW,249,1.0,9.0,61,0.00,,,0.00,meteohub,2013-01-31 16:24:00,
2013-01-31 11:29:00,39.4,26.6,30.03,SSE,160,5.0,9.0,60,0.00,,,0.00,meteohub,2013-01-31 16:29:00,
2013-01-31 11:34:00,39.2,26.1,30.04,NNW,331,4.0,9.0,59,0.00,,,0.00,meteohub,2013-01-31 16:34:00,
2013-01-31 11:39:00,39.6,27.1,30.03,South,180,2.0,11.0,61,0.00,,,0.00,meteohub,2013-01-31 16:39:00,
2013-01-31 11:44:00,39.9,28.0,30.03,South,188,3.0,11.0,62,0.00,,,0.00,meteohub,2013-01-31 16:44:00,
2013-01-31 11:49:00,39.9,26.8,30.04,SSW,208,3.0,8.0,59,0.00,,,0.00,meteohub,2013-01-31 16:49:00,
2013-01-31 11:54:00,40.1,27.0,30.03,West,278,2.0,12.0,59,0.00,,,0.00,meteohub,2013-01-31 16:54:00,
2013-01-31 11:59:00,40.6,27.0,30.03,South,180,4.0,12.0,58,0.00,,,0.00,meteohub,2013-01-31 16:59:00,
2013-01-31 12:04:00,40.6,27.0,30.03,SSE,163,4.0,12.0,58,0.00,,,0.00,meteohub,2013-01-31 17:04:00,
2013-01-31 12:09:00,41.2,27.1,30.04,SW,225,5.0,11.0,57,0.00,,,0.00,meteohub,2013-01-31 17:09:00,
2013-01-31 12:14:00,41.5,27.5,30.04,WNW,293,2.0,13.0,57,0.00,,,0.00,meteohub,2013-01-31 17:14:00,
2013-01-31 12:19:00,42.1,26.6,30.04,SE,137,2.0,13.0,54,0.00,,,0.00,meteohub,2013-01-31 17:19:00,
2013-01-31 12:24:00,41.9,27.0,30.04,SW,225,2.0,12.0,55,0.00,,,0.00,meteohub,2013-01-31 17:24:00,
2013-01-31 12:29:00,42.4,27.0,30.04,WNW,283,3.0,12.0,54,0.00,,,0.00,meteohub,2013-01-31 17:29:00,
2013-01-31 12:34:00,42.4,26.1,30.05,NNW,345,4.0,12.0,52,0.00,,,0.00,meteohub,2013-01-31 17:34:00,
2013-01-31 12:39:00,42.4,25.5,30.04,WSW,244,1.0,11.0,51,0.00,,,0.00,meteohub,2013-01-31 17:39:00,
2013-01-31 12:44:00,42.8,26.4,30.05,SSW,195,1.0,13.0,52,0.00,,,0.00,meteohub,2013-01-31 17:44:00,
2013-01-31 12:49:00,43.0,26.6,30.05,SSW,200,2.0,13.0,52,0.00,,,0.00,meteohub,2013-01-31 17:49:00,
2013-01-31 12:54:00,43.3,25.5,30.05,NW,324,5.0,13.0,49,0.00,,,0.00,meteohub,2013-01-31 17:54:00,
2013-01-31 12:59:00,43.0,25.7,30.05,South,186,7.0,13.0,50,0.00,,,0.00,meteohub,2013-01-31 17:59:00,
2013-01-31 13:04:00,42.6,25.3,30.05,NE,43,5.0,13.0,50,0.00,,,0.00,meteohub,2013-01-31 18:04:00,
2013-01-31 13:09:00,42.6,25.3,30.04,NNW,343,2.0,13.0,50,0.00,,,0.00,meteohub,2013-01-31 18:09:00,
2013-01-31 13:14:00,43.0,25.7,30.04,NW,323,3.0,13.0,50,0.00,,,0.00,meteohub,2013-01-31 18:14:00,
2013-01-31 13:19:00,43.2,25.7,30.04,WSW,240,5.0,13.0,50,0.00,,,0.00,meteohub,2013-01-31 18:19:00,
2013-01-31 13:24:00,43.7,25.7,30.04,North,1,7.0,13.0,49,0.00,,,0.00,meteohub,2013-01-31 18:24:00,
2013-01-31 13:29:00,43.9,25.9,30.03,SSE,167,7.0,11.0,49,0.00,,,0.00,meteohub,2013-01-31 18:29:00,
2013-01-31 13:34:00,43.9,26.4,30.03,South,183,0.0,10.0,50,0.00,,,0.00,meteohub,2013-01-31 18:34:00,
2013-01-31 13:39:00,44.1,26.6,30.04,WSW,250,3.0,10.0,50,0.00,,,0.00,meteohub,2013-01-31 18:39:00,
2013-01-31 13:44:00,44.2,26.2,30.04,South,172,4.0,9.0,49,0.00,,,0.00,meteohub,2013-01-31 18:44:00,
2013-01-31 13:49:00,44.4,25.5,30.04,WSW,245,2.0,9.0,47,0.00,,,0.00,meteohub,2013-01-31 18:49:00,
2013-01-31 13:54:00,44.4,25.9,30.04,SW,228,5.0,11.0,48,0.00,,,0.00,meteohub,2013-01-31 18:54:00,
2013-01-31 13:59:00,44.4,24.4,30.04,WNW,299,4.0,11.0,45,0.00,,,0.00,meteohub,2013-01-31 18:59:00,
2013-01-31 14:04:00,44.8,23.7,30.04,South,180,8.0,11.0,43,0.00,,,0.00,meteohub,2013-01-31 19:04:00,
2013-01-31 14:09:00,44.8,24.3,30.04,NNW,328,5.0,11.0,44,0.00,,,0.00,meteohub,2013-01-31 19:09:00,
2013-01-31 14:14:00,45.3,23.5,30.05,North,4,13.0,14.0,42,0.00,,,0.00,meteohub,2013-01-31 19:14:00,
2013-01-31 14:20:00,45.3,24.1,30.05,SE,146,3.0,14.0,43,0.00,,,0.00,meteohub,2013-01-31 19:20:00,
2013-01-31 14:24:00,45.9,23.5,30.06,SSE,160,4.0,16.0,41,0.00,,,0.00,meteohub,2013-01-31 19:24:00,
2013-01-31 14:29:00,45.7,22.8,30.05,NNW,338,2.0,16.0,40,0.00,,,0.00,meteohub,2013-01-31 19:29:00,
2013-01-31 14:35:00,45.5,23.7,30.05,WSW,252,3.0,14.0,42,0.00,,,0.00,meteohub,2013-01-31 19:35:00,
2013-01-31 14:40:00,45.3,23.0,30.05,WNW,300,3.0,14.0,41,0.00,,,0.00,meteohub,2013-01-31 19:40:00,
2013-01-31 14:45:00,45.3,23.0,30.05,SSE,156,7.0,14.0,41,0.00,,,0.00,meteohub,2013-01-31 19:45:00,
2013-01-31 14:50:00,45.0,22.6,30.05,WNW,298,5.0,13.0,41,0.00,,,0.00,meteohub,2013-01-31 19:50:00,
2013-01-31 14:55:00,45.0,22.1,30.05,SW,224,6.0,13.0,40,0.00,,,0.00,meteohub,2013-01-31 19:55:00,
2013-01-31 15:00:00,44.8,22.5,30.05,SW,231,6.0,12.0,41,0.00,,,0.00,meteohub,2013-01-31 20:00:00,
2013-01-31 15:05:00,44.8,22.5,30.05,SW,236,4.0,13.0,41,0.00,,,0.00,meteohub,2013-01-31 20:05:00,
2013-01-31 15:10:00,45.1,23.4,30.05,SSE,166,6.0,13.0,42,0.00,,,0.00,meteohub,2013-01-31 20:10:00,
2013-01-31 15:15:00,45.1,22.8,30.05,NW,311,2.0,13.0,41,0.00,,,0.00,meteohub,2013-01-31 20:15:00,
2013-01-31 15:20:00,45.3,23.0,30.05,West,270,3.0,11.0,41,0.00,,,0.00,meteohub,2013-01-31 20:20:00,
2013-01-31 15:25:00,45.7,22.8,30.05,SW,231,6.0,14.0,40,0.00,,,0.00,meteohub,2013-01-31 20:25:00,
2013-01-31 15:30:00,45.9,23.5,30.05,WNW,283,3.0,14.0,41,0.00,,,0.00,meteohub,2013-01-31 20:30:00,
2013-01-31 15:35:00,45.9,22.8,30.06,SSW,193,2.0,11.0,40,0.00,,,0.00,meteohub,2013-01-31 20:35:00,
2013-01-31 15:40:00,45.9,22.8,30.06,South,191,4.0,11.0,40,0.00,,,0.00,meteohub,2013-01-31 20:40:00,
2013-01-31 15:45:00,45.9,23.5,30.06,SW,225,4.0,11.0,41,0.00,,,0.00,meteohub,2013-01-31 20:45:00,
2013-01-31 15:50:00,46.0,23.7,30.05,NW,314,4.0,14.0,41,0.00,,,0.00,meteohub,2013-01-31 20:50:00,
2013-01-31 15:55:00,46.2,23.9,30.05,SW,225,1.0,14.0,41,0.00,,,0.00,meteohub,2013-01-31 20:55:00,
2013-01-31 16:00:00,46.2,22.6,30.05,SW,219,6.0,14.0,39,0.00,,,0.00,meteohub,2013-01-31 21:00:00,
2013-01-31 16:05:00,46.2,22.6,30.06,SSW,205,4.0,14.0,39,0.00,,,0.00,meteohub,2013-01-31 21:05:00,
2013-01-31 16:10:00,46.0,23.0,30.05,South,173,5.0,14.0,40,0.00,,,0.00,meteohub,2013-01-31 21:10:00,
2013-01-31 16:15:00,46.2,22.6,30.05,SSW,201,2.0,12.0,39,0.00,,,0.00,meteohub,2013-01-31 21:15:00,
2013-01-31 16:20:00,46.2,22.6,30.05,NNW,343,8.0,10.0,39,0.00,,,0.00,meteohub,2013-01-31 21:20:00,
2013-01-31 16:25:00,46.2,23.2,30.05,SW,214,3.0,9.0,40,0.00,,,0.00,meteohub,2013-01-31 21:25:00,
2013-01-31 16:30:00,46.2,23.2,30.06,NNW,329,2.0,9.0,40,0.00,,,0.00,meteohub,2013-01-31 21:30:00,
2013-01-31 16:35:00,46.2,23.2,30.05,NNW,328,4.0,9.0,40,0.00,,,0.00,meteohub,2013-01-31 21:35:00,
2013-01-31 16:40:00,46.2,23.2,30.05,North,349,2.0,9.0,40,0.00,,,0.00,meteohub,2013-01-31 21:40:00,
2013-01-31 16:45:00,46.2,22.6,30.05,SSW,211,2.0,9.0,39,0.00,,,0.00,meteohub,2013-01-31 21:45:00,
2013-01-31 16:50:00,46.2,23.2,30.05,SW,235,3.0,9.0,40,0.00,,,0.00,meteohub,2013-01-31 21:50:00,
2013-01-31 16:55:00,46.2,22.6,30.06,West,267,2.0,9.0,39,0.00,,,0.00,meteohub,2013-01-31 21:55:00,
2013-01-31 17:00:00,46.2,23.2,30.06,South,176,2.0,9.0,40,0.00,,,0.00,meteohub,2013-01-31 22:00:00,
2013-01-31 17:05:00,46.2,23.2,30.06,North,349,4.0,9.0,40,0.00,,,0.00,meteohub,2013-01-31 22:05:00,
2013-01-31 17:10:00,46.2,22.6,30.05,SW,215,2.0,7.0,39,0.00,,,0.00,meteohub,2013-01-31 22:10:00,
2013-01-31 17:15:00,46.0,23.0,30.06,SSW,193,3.0,8.0,40,0.00,,,0.00,meteohub,2013-01-31 22:15:00,
2013-01-31 17:20:00,45.7,22.8,30.05,SW,221,1.0,8.0,40,0.00,,,0.00,meteohub,2013-01-31 22:20:00,
2013-01-31 17:26:00,45.7,22.8,30.05,SW,231,5.0,8.0,40,0.00,,,0.00,meteohub,2013-01-31 22:26:00,
2013-01-31 17:31:00,45.5,23.2,30.06,SSE,159,3.0,8.0,41,0.00,,,0.00,meteohub,2013-01-31 22:31:00,
2013-01-31 17:36:00,45.3,23.0,30.05,WSW,247,1.0,7.0,41,0.00,,,0.00,meteohub,2013-01-31 22:36:00,
2013-01-31 17:41:00,45.3,23.0,30.05,SSW,207,1.0,7.0,41,0.00,,,0.00,meteohub,2013-01-31 22:41:00,
2013-01-31 17:46:00,45.1,23.4,30.06,SW,218,2.0,7.0,42,0.00,,,0.00,meteohub,2013-01-31 22:46:00,
2013-01-31 17:51:00,44.8,23.0,30.05,South,190,3.0,7.0,42,0.00,,,0.00,meteohub,2013-01-31 22:51:00,
2013-01-31 17:56:00,44.4,23.4,30.06,SW,228,1.0,7.0,43,0.00,,,0.00,meteohub,2013-01-31 22:56:00,
2013-01-31 18:01:00,44.2,23.7,30.05,SSE,163,4.0,7.0,44,0.00,,,0.00,meteohub,2013-01-31 23:01:00,
2013-01-31 18:06:00,43.9,23.4,30.06,West,265,0.0,6.0,44,0.00,,,0.00,meteohub,2013-01-31 23:06:00,
2013-01-31 18:11:00,43.7,23.7,30.06,WSW,249,1.0,5.0,45,0.00,,,0.00,meteohub,2013-01-31 23:11:00,
2013-01-31 18:16:00,43.3,23.4,30.06,SW,228,1.0,5.0,45,0.00,,,0.00,meteohub,2013-01-31 23:16:00,
2013-01-31 18:21:00,43.2,23.7,30.06,SSE,162,1.0,2.0,46,0.00,,,0.00,meteohub,2013-01-31 23:21:00,
2013-01-31 18:26:00,42.8,23.9,30.07,SSW,201,0.0,2.0,47,0.00,,,0.00,meteohub,2013-01-31 23:26:00,
2013-01-31 18:31:00,42.4,23.7,30.07,SW,218,0.0,2.0,47,0.00,,,0.00,meteohub,2013-01-31 23:31:00,
2013-01-31 18:36:00,42.3,23.9,30.08,SSW,192,1.0,2.0,48,0.00,,,0.00,meteohub,2013-01-31 23:36:00,
2013-01-31 18:41:00,42.3,23.9,30.08,South,170,1.0,2.0,48,0.00,,,0.00,meteohub,2013-01-31 23:41:00,
2013-01-31 18:46:00,42.1,24.3,30.08,SW,222,0.0,2.0,49,0.00,,,0.00,meteohub,2013-01-31 23:46:00,
2013-01-31 18:51:00,41.9,24.1,30.09,South,176,0.0,3.0,49,0.00,,,0.00,meteohub,2013-01-31 23:51:00,
2013-01-31 18:56:00,41.7,24.4,30.08,West,278,1.0,3.0,50,0.00,,,0.00,meteohub,2013-01-31 23:56:00,
2013-01-31 19:01:00,41.5,24.8,30.09,South,190,0.0,3.0,51,0.00,,,0.00,meteohub,2013-02-01 00:01:00,
2013-01-31 19:06:00,41.4,24.6,30.08,SW,234,0.0,3.0,51,0.00,,,0.00,meteohub,2013-02-01 00:06:00,
2013-01-31 19:11:00,41.4,25.0,30.08,SW,224,0.0,3.0,52,0.00,,,0.00,meteohub,2013-02-01 00:11:00,
2013-01-31 19:16:00,41.2,25.3,30.08,SSW,203,1.0,2.0,53,0.00,,,0.00,meteohub,2013-02-01 00:16:00,
2013-01-31 19:21:00,40.8,25.5,30.08,SSW,207,0.0,1.0,54,0.00,,,0.00,meteohub,2013-02-01 00:21:00,
2013-01-31 19:26:00,40.6,25.3,30.08,SW,218,0.0,1.0,54,0.00,,,0.00,meteohub,2013-02-01 00:26:00,
2013-01-31 19:31:00,40.3,25.3,30.08,South,170,0.0,1.0,55,0.00,,,0.00,meteohub,2013-02-01 00:31:00,
2013-01-31 19:36:00,40.1,25.7,30.09,South,177,0.0,1.0,56,0.00,,,0.00,meteohub,2013-02-01 00:36:00,
2013-01-31 19:41:00,39.9,25.9,30.09,SSW,201,1.0,2.0,57,0.00,,,0.00,meteohub,2013-02-01 00:41:00,
2013-01-31 19:46:00,39.9,25.5,30.09,SW,225,1.0,2.0,56,0.00,,,0.00,meteohub,2013-02-01 00:46:00,
2013-01-31 19:51:00,40.1,25.7,30.09,SSW,198,1.0,3.0,56,0.00,,,0.00,meteohub,2013-02-01 00:51:00,
2013-01-31 19:56:00,40.1,26.1,30.10,SSW,210,0.0,3.0,57,0.00,,,0.00,meteohub,2013-02-01 00:56:00,
2013-01-31 20:01:00,39.9,25.9,30.10,SW,222,1.0,3.0,57,0.00,,,0.00,meteohub,2013-02-01 01:01:00,
2013-01-31 20:07:00,39.9,25.9,30.10,SSW,205,0.0,3.0,57,0.00,,,0.00,meteohub,2013-02-01 01:07:00,
2013-01-31 20:12:00,39.9,25.9,30.10,South,190,1.0,3.0,57,0.00,,,0.00,meteohub,2013-02-01 01:12:00,
2013-01-31 20:17:00,39.9,26.4,30.10,WSW,238,1.0,3.0,58,0.00,,,0.00,meteohub,2013-02-01 01:17:00,
2013-01-31 20:21:00,39.9,25.9,30.10,SSE,167,2.0,4.0,57,0.00,,,0.00,meteohub,2013-02-01 01:21:00,
2013-01-31 20:27:00,40.1,26.1,30.10,SW,228,0.0,5.0,57,0.00,,,0.00,meteohub,2013-02-01 01:27:00,
2013-01-31 20:32:00,39.9,25.9,30.10,South,174,2.0,5.0,57,0.00,,,0.00,meteohub,2013-02-01 01:32:00,
2013-01-31 20:37:00,39.9,25.9,30.10,South,184,1.0,5.0,57,0.00,,,0.00,meteohub,2013-02-01 01:37:00,
2013-01-31 20:42:00,39.9,25.9,30.10,South,179,4.0,4.0,57,0.00,,,0.00,meteohub,2013-02-01 01:42:00,
2013-01-31 20:47:00,39.9,26.4,30.10,SSW,197,2.0,5.0,58,0.00,,,0.00,meteohub,2013-02-01 01:47:00,
2013-01-31 20:52:00,39.7,26.2,30.11,SSW,204,2.0,5.0,58,0.00,,,0.00,meteohub,2013-02-01 01:52:00,
2013-01-31 20:57:00,39.6,26.1,30.11,SSW,203,1.0,5.0,58,0.00,,,0.00,meteohub,2013-02-01 01:57:00,
2013-01-31 21:02:00,39.6,26.1,30.11,SW,218,2.0,4.0,58,0.00,,,0.00,meteohub,2013-02-01 02:02:00,
2013-01-31 21:07:00,39.6,26.4,30.11,SSW,200,1.0,3.0,59,0.00,,,0.00,meteohub,2013-02-01 02:07:00,
2013-01-31 21:12:00,39.4,26.2,30.11,SSW,194,1.0,3.0,59,0.00,,,0.00,meteohub,2013-02-01 02:12:00,
2013-01-31 21:17:00,39.4,26.2,30.12,SW,222,1.0,3.0,59,0.00,,,0.00,meteohub,2013-02-01 02:17:00,
2013-01-31 21:22:00,39.2,26.1,30.12,South,180,3.0,4.0,59,0.00,,,0.00,meteohub,2013-02-01 02:22:00,
2013-01-31 21:27:00,39.0,26.2,30.12,South,172,1.0,4.0,60,0.00,,,0.00,meteohub,2013-02-01 02:27:00,
2013-01-31 21:32:00,38.8,26.1,30.12,SSW,193,1.0,4.0,60,0.00,,,0.00,meteohub,2013-02-01 02:32:00,
2013-01-31 21:37:00,39.0,26.2,30.12,South,188,1.0,4.0,60,0.00,,,0.00,meteohub,2013-02-01 02:37:00,
2013-01-31 21:42:00,39.0,26.2,30.12,South,176,1.0,4.0,60,0.00,,,0.00,meteohub,2013-02-01 02:42:00,
2013-01-31 21:47:00,38.8,26.1,30.12,SW,215,0.0,4.0,60,0.00,,,0.00,meteohub,2013-02-01 02:47:00,
2013-01-31 21:52:00,38.8,26.1,30.12,SSE,158,0.0,4.0,60,0.00,,,0.00,meteohub,2013-02-01 02:52:00,
2013-01-31 21:57:00,38.7,26.1,30.12,SW,225,1.0,4.0,60,0.00,,,0.00,meteohub,2013-02-01 02:57:00,
2013-01-31 22:02:00,38.5,26.2,30.12,SW,225,0.0,2.0,61,0.00,,,0.00,meteohub,2013-02-01 03:02:00,
2013-01-31 22:07:00,38.3,26.1,30.12,SW,225,0.0,2.0,61,0.00,,,0.00,meteohub,2013-02-01 03:07:00,
2013-01-31 22:12:00,37.9,26.1,30.12,SW,225,0.0,1.0,62,0.00,,,0.00,meteohub,2013-02-01 03:12:00,
2013-01-31 22:17:00,37.6,25.7,30.12,SW,225,0.0,1.0,62,0.00,,,0.00,meteohub,2013-02-01 03:17:00,
2013-01-31 22:22:00,37.0,25.7,30.12,SW,225,0.0,0.0,63,0.00,,,0.00,meteohub,2013-02-01 03:22:00,
2013-01-31 22:27:00,36.9,26.2,30.12,SW,225,0.0,0.0,65,0.00,,,0.00,meteohub,2013-02-01 03:27:00,
2013-01-31 22:32:00,36.7,26.4,30.12,SW,226,0.0,1.0,66,0.00,,,0.00,meteohub,2013-02-01 03:32:00,
2013-01-31 22:37:00,36.7,26.4,30.12,South,177,0.0,1.0,66,0.00,,,0.00,meteohub,2013-02-01 03:37:00,
2013-01-31 22:42:00,36.7,26.8,30.12,South,177,0.0,1.0,67,0.00,,,0.00,meteohub,2013-02-01 03:42:00,
2013-01-31 22:47:00,36.3,26.8,30.12,South,176,0.0,1.0,68,0.00,,,0.00,meteohub,2013-02-01 03:47:00,
2013-01-31 22:52:00,36.5,27.0,30.12,WSW,252,0.0,1.0,68,0.00,,,0.00,meteohub,2013-02-01 03:52:00,
2013-01-31 22:57:00,36.9,27.0,30.12,West,270,0.0,3.0,67,0.00,,,0.00,meteohub,2013-02-01 03:57:00,
2013-01-31 23:02:00,37.4,27.1,30.12,SSW,195,2.0,3.0,66,0.00,,,0.00,meteohub,2013-02-01 04:02:00,
2013-01-31 23:07:00,37.8,27.1,30.12,South,181,2.0,5.0,65,0.00,,,0.00,meteohub,2013-02-01 04:07:00,
2013-01-31 23:12:00,37.8,27.1,30.12,West,270,1.0,5.0,65,0.00,,,0.00,meteohub,2013-02-01 04:12:00,
2013-01-31 23:17:00,37.9,26.8,30.12,South,181,2.0,5.0,64,0.00,,,0.00,meteohub,2013-02-01 04:17:00,
2013-01-31 23:22:00,38.1,27.0,30.12,SSW,197,2.0,4.0,64,0.00,,,0.00,meteohub,2013-02-01 04:22:00,
2013-01-31 23:27:00,38.1,27.0,30.12,WSW,242,1.0,4.0,64,0.00,,,0.00,meteohub,2013-02-01 04:27:00,
2013-01-31 23:32:00,37.9,26.8,30.12,SSW,204,3.0,4.0,64,0.00,,,0.00,meteohub,2013-02-01 04:32:00,
2013-01-31 23:37:00,37.9,26.8,30.12,South,189,3.0,4.0,64,0.00,,,0.00,meteohub,2013-02-01 04:37:00,
2013-01-31 23:42:00,37.9,26.8,30.12,SSW,197,1.0,4.0,64,0.00,,,0.00,meteohub,2013-02-01 04:42:00,
2013-01-31 23:47:00,37.9,26.8,30.12,SSW,194,3.0,4.0,64,0.00,,,0.00,meteohub,2013-02-01 04:47:00,
2013-01-31 23:52:00,37.9,26.8,30.12,WSW,246,1.0,4.0,64,0.00,,,0.00,meteohub,2013-02-01 04:52:00,
2013-01-31 23:57:00,37.9,27.1,30.12,WSW,238,0.0,4.0,65,0.00,,,0.00,meteohub,2013-02-01 04:57:00,